Lid_Strength_Index
3 3 3 3 4 4 4 4 4 5 5 4 4 4 4 4 4 4 3 3 3 2 2 1 1 1 2 4 5 2 1 1 0 0 2 3 5 6 7 6 6 7 6 6 6 7 7
3 3 3 3 4 4 4 4 4 4 4 4 4 4 4 4 4 4 3 3 2 2 2 1 1 1 3 7 2 1 2 2 1 1 2 3 4 4 5 6 6 6 6 6 6 6 6
2 3 3 3 3 3 4 4 4 4 4 4 4 4 4 4 4 3 3 2 2 2 1 1 1 2 5 5 1 1 1 2 2 2 3 3 3 4 4 6 4 5 7 7 6 6 6
2 2 2 3 3 3 4 4 4 4 4 4 4 4 4 4 4 3 3 3 2 2 2 2 1 2 6 2 0 1 1 2 1 2 2 2 2 4 4 4 5 7 7 10 7 7 6
2 2 2 2 2 3 3 4 4 5 4 4 4 4 4 4 4 3 3 3 2 2 2 1 2 3 6 2 3 2 1 3 3 2 1 2 3 5 5 7 8 7 10 10 9 6 7
1 1 2 2 2 2 3 3 4 4 5 4 4 4 4 4 4 3 3 3 1 2 1 1 2 5 4 6 3 3 1 3 4 4 4 5 5 7 7 8 12 10 10 9 10 8 7
1 1 1 2 2 2 3 3 4 4 4 4 4 5 4 4 4 4 3 1 3 4 3 5 5 6 5 3 2 3 2 3 4 4 7 6 8 10 8 7 8 8 9 10 8 7 8
1 1 1 2 2 2 2 3 3 4 4 4 5 5 4 4 4 4 2 3 3 3 6 4 4 5 4 3 5 4 2 5 5 8 7 8 10 8 7 7 8 8 10 9 8 7 7
1 1 1 2 2 2 2 3 3 3 4 5 5 4 4 4 4 3 2 3 1 2 6 5 4 5 4 3 5 5 3 4 6 8 9 10 9 8 9 8 9 9 10 9 9 8 7
1 1 1 2 2 2 2 3 3 3 4 5 5 4 4 4 4 2 2 1 1 1 9 8 6 5 4 4 7 3 3 4 6 8 8 8 6 8 8 10 9 11 8 9 9 10 11
1 1 2 2 2 3 3 3 3 3 4 5 5 4 4 5 2 3 2 0 1 2 15 7 6 2 3 6 5 5 3 4 8 8 7 9 9 9 9 8 7 9 8 9 9 9 10
1 1 2 2 2 2 3 3 3 3 4 5 5 4 4 3 1 2 1 1 2 11 16 9 6 7 7 6 6 5 5 4 4 8 7 8 6 7 7 7 7 7 8 8 8 9 13
1 2 2 2 2 2 3 3 3 3 4 5 5 5 4 2 3 1 1 3 10 13 7 10 9 7 8 8 8 8 8 9 11 14 12 9 9 7 6 8 7 7 9 13 14 14 14
2 2 2 2 3 3 3 3 3 4 5 5 6 6 5 3 1 1 2 6 13 10 10 7 8 8 10 8 9 8 9 10 9 10 12 13 15 9 7 8 9 9 9 12 17 15 13
2 2 2 2 3 3 3 3 3 4 5 6 6 1 2 3 1 2 5 11 11 10 8 9 8 11 10 9 10 10 10 10 9 9 12 12 13 7 7 6 7 9 11 8 13 11 12
2 2 2 2 3 3 3 3 4 4 5 6 4 3 4 3 1 3 7 12 9 7 7 7 12 11 13 12 13 11 11 8 9 7 6 10 13 8 7 6 6 8 7 12 12 16 15
2 2 2 2 3 3 3 3 4 4 6 6 4 6 4 3 2 6 10 10 8 7 6 9 9 12 11 13 12 13 12 8 7 8 7 8 10 10 9 9 10 9 11 9 9 11 14
3 2 2 2 2 3 3 3 4 5 6 6 5 8 4 3 8 7 10 10 8 7 6 6 7 8 10 11 13 13 13 10 7 7 10 8 10 13 10 7 6 8 9 9 13 13 11
2 2 2 2 2 3 3 4 4 5 7 6 7 6 3 3 9 9 9 10 8 8 7 7 8 7 7 11 14 12 11 8 7 9 10 9 12 15 14 12 9 10 9 8 9 9 13
3 2 2 2 2 3 3 4 5 6 6 6 7 9 6 5 6 9 10 10 10 7 8 6 7 6 8 10 9 12 12 10 8 8 7 8 11 12 16 15 13 13 11 9 10 13 12
2 2 2 2 2 3 3 3 4 6 6 6 7 8 8 10 8 8 8 9 10 11 8 7 7 7 9 13 12 13 12 12 10 8 8 10 14 11 11 10 11 11 10 10 11 10 12
2 2 2 3 3 3 4 3 4 6 7 5 8 9 7 8 7 8 10 9 10 9 9 9 8 7 8 11 11 13 11 12 11 9 10 9 14 11 12 12 13 13 10 9 9 9 9
2 2 3 3 3 3 4 4 4 6 6 6 6 5 8 9 9 9 9 9 9 8 8 7 8 7 8 7 7 7 8 8 8 10 10 11 12 13 16 13 13 17 11 10 9 8 8
2 3 3 3 3 3 4 4 4 6 6 5 6 7 8 10 9 9 9 7 8 8 9 7 6 7 5 3 4 6 7 8 8 8 8 12 13 14 17 15 20 13 7 8 9 8 7
3 3 3 3 3 3 4 4 3 6 6 5 4 6 7 10 9 8 8 7 6 7 7 7 5 4 3 5 9 11 10 11 10 9 9 9 12 15 17 17 15 13 11 11 10 10 7
3 3 3 3 3 4 5 4 3 5 6 5 5 5 7 9 8 7 8 7 8 8 7 6 4 2 4 7 9 14 17 14 14 11 7 8 10 14 16 19 21 14 10 8 8 15 9
3 3 3 3 4 4 5 5 4 4 5 5 6 4 7 9 7 7 7 7 7 8 8 6 5 5 4 9 11 13 15 12 16 15 13 13 12 15 16 17 15 11 8 7 17 15 8
3 3 3 3 4 4 5 5 5 4 5 5 6 5 7 9 8 6 6 7 6 7 9 6 6 6 7 11 11 11 14 12 13 12 13 14 15 16 15 17 19 8 9 13 10 8 8
2 3 3 4 4 4 5 5 5 5 5 5 7 5 6 10 8 5 5 4 4 5 6 5 6 7 7 9 9 9 12 12 12 16 9 15 12 14 13 14 9 8 8 8 7 8 7